Skip Page Navigation
NASA JPL Caltech
NASA Logo - Jet Propulsion Laboratory + View the NASA Portal
+ Center for Near-Earth Object Studies
JPL Home Earth Solar System Stars & Galaxies Technology
JPL Solar System Dynamics
BODIES ORBITS EPHEMERIDES TOOLS PHYSICAL DATA DISCOVERY FAQ SITE MAP

Significant website upgrade scheduled for September 27. More details available here.

JPL Small-Body Database Browser
Search: [ help ]  
67796 (2000 UP104)
Classification: Main-belt Asteroid          SPK-ID: 2067796
Ephemeris | Orbit Diagram | Orbital Elements | Mission Design | Physical Parameters | Discovery Circumstances ]

[ show orbit diagram ]
Orbital Elements at Epoch 2459396.5 (2021-Jul-01.0) TDB
Reference: JPL 27 (heliocentric ecliptic J2000)
 Element Value Uncertainty (1-sigma)   Units 
e .1008025349079043 4.6169e-08  
a 2.711688650988559 1.752e-08 au
q 2.438343561087917 1.3102e-07 au
i 13.81896165826977 4.6462e-06 deg
node 251.9140030644133 2.1608e-05 deg
peri 62.63447704560598 3.2602e-05 deg
M 319.0175442904131 2.4349e-05 deg
tp 2459582.175088484847
(2022-Jan-02.67508848)
0.00011043 TDB
period 1631.015777292932
4.47
1.5806e-05
4.327e-08
d
yr
n .2207213474032162 2.1391e-09 deg/d
Q 2.985033740889201 1.9286e-08 au
  Orbit Determination Parameters
   # obs. used (total)      769  
   data-arc span      8062 days (22.07 yr)  
   first obs. used      1999-07-13  
   last obs. used      2021-08-08  
   planetary ephem.      DE441  
   SB-pert. ephem.      SB441-N16  
   condition code      0  
   norm. resid. RMS      .49877  
   source      ORB  
   producer      Otto Matic  
   solution date      2021-Aug-25 01:36:14  

Additional Information
 Earth MOID = 1.45678 au 
 Jupiter MOID = 2.24443 au 
 T_jup = 3.314 
[ hide covariance matrix ]
Orbital Elements at Epoch 2457391.5 (2016-Jan-04.0) TDB
Reference: JPL 27 (heliocentric ecliptic J2000)
 Element Value Uncertainty (1-sigma)   Units 
e .09954846880327228 4.6117e-08  
q 2.443557527888145 1.306e-07 au
tp 2457948.231897537041
(2017-Jul-13.73189754)
0.00011199 TDB
node 251.9580063885771 2.1614e-05 deg
peri 61.98556835777514 3.2843e-05 deg
i 13.81268655248239 4.6447e-06 deg
  Orbit Determination Parameters
   # obs. used (total)      769  
   data-arc span      8062 days (22.07 yr)  
   first obs. used      1999-07-13  
   last obs. used      2021-08-08  
   planetary ephem.      DE441  
   SB-pert. ephem.      SB441-N16  
   condition code      0  
   norm. resid. RMS      .49877  
   source      ORB  
   producer      Otto Matic  
   solution date      2021-Aug-25 01:36:14  

Additional Information
 Jupiter MOID = 2.24443 au 
 T_jup = 3.314 
Orbit Covariance (6×6)
  e q tp node peri i
e 2.126776342322142E-15 -5.982378524370396E-15 7.075118805178473E-13 1.559534564420092E-14 1.911426095569592E-13 -2.785825538658668E-15
q -5.982378524370396E-15 1.705649134426013E-14 -2.039466797700844E-12 -4.568242809747942E-14 -5.653306165819884E-13 8.453064214080036E-15
tp 7.075118805178473E-13 -2.039466797700844E-12 1.254242225402937E-8 -6.283030507873871E-13 2.80062963567658E-9 7.595935860269431E-12
node 1.559534564420092E-14 -4.568242809747942E-14 -6.283030507873871E-13 4.671698454689465E-10 -4.527210529977341E-10 -6.91124950855233E-12
peri 1.911426095569592E-13 -5.653306165819884E-13 2.80062963567658E-9 -4.527210529977341E-10 1.07864433220553E-9 8.264740815914348E-12
i -2.785825538658668E-15 8.453064214080036E-15 7.595935860269431E-12 -6.91124950855233E-12 8.264740815914348E-12 2.157286294342248E-11

Ephemeris | Orbit Diagram | Orbital Elements | Mission Design | Physical Parameters | Discovery Circumstances ]

Physical Parameter Table
Parameter Symbol Value Units Sigma Reference Notes
absolute magnitude H 14.87   n/a MPO636984  

67796 (2000 UP104)          Discovered 2000-Oct-25 by LINEAR at Socorro
Reference: 20030910/Numbers.arcLast Updated: 2004-04-19

Alternate Designations
 2000 UP104 = 1999 NZ61 
Ephemeris | Orbit Diagram | Orbital Elements | Mission Design | Physical Parameters | Discovery Circumstances ]
ABOUT SSD CREDITS/AWARDS PRIVACY/COPYRIGHT GLOSSARY LINKS
FirstGov 2021-Sep-23 10:06 UT
(server date/time)  
NASA Home Page
Site Manager:   Ryan S. Park
Webmaster  Alan B. Chamberlin